Guymon, OK

8:09 AM CDT on July 29, 2016 (GMT -0500)
Guymon Municipal

Weather History for KGUY - October, 2013

Change the Weather History Date:

Monday, October 21, 2013

  Actual Average Record
Temperature  
Mean Temperature 53 °F 55 °F  
Max Temperature 64 °F 70 °F 90 °F (2003)
Min Temperature 42 °F 41 °F 31 °F (2006)
Degree Days  
Heating Degree Days 12 10  
Month to date heating degree days 163 148  
Since 1 July heating degree days 171 191  
Cooling Degree Days 0 0  
Month to date cooling degree days 25 25  
Year to date cooling degree days 1846 1479  
Growing Degree Days 3 (Base 50)    
Moisture  
Dew Point 34 °F    
Average Humidity 54    
Maximum Humidity 82    
Minimum Humidity 25    
Precipitation  
Precipitation T in 0.05 in 1.78 in (2015)
Month to date precipitation 0.69 1.20  
Year to date precipitation 14.01 17.76  
Snow  
Snow 0.00 in - - ()
Month to date snowfall T  
Since 1 July snowfall T  
Since 1 September snowfall T  
Snow Depth 0.00 in    
Sea Level Pressure  
Sea Level Pressure 30.08 in    
Wind  
Wind Speed 8 mph (NNW)    
Max Wind Speed 20 mph    
Max Gust Speed 24 mph    
Visibility 10 miles    
Events Rain    
T = Trace of Precipitation, MM = Missing Value Source: NWS Daily Summary

Daily Weather History Graph

Daily Weather History Graph

Search for Another Location

Airport or City:

Trip Planner

Search our weather history database for the weather conditions in past years. The results will help you decide how hot, cold, wet, or windy it might be!

Date:

Astronomy

Oct. 21, 2013 Rise Set
Actual Time 7:59 AM CDT 7:01 PM CDT
Civil Twilight 7:32 AM CDT 7:27 PM CDT
Nautical Twilight 7:02 AM CDT 7:57 PM CDT
Astronomical Twilight 6:32 AM CDT 8:27 PM CDT
Moon 8:59 PM CDT (10/21) 10:32 AM CDT (10/21)
Length of Visible Light 11h 54m
Length of Day
11h 02m
Waning Gibbous, 92% of the Moon is Illuminated
Oct 21
Waning Gibbous
Oct 26
Last Quarter
Nov 3
New
Nov 9
First Quarter
Nov 17
Full

Hourly Weather History & Observations

Time (CDT) Temp. Windchill Dew Point Humidity Pressure Visibility Wind Dir Wind Speed Gust Speed Precip Events Conditions
12:53 AM 50.0 °F - 37.9 °F 63% 30.00 in 10.0 mi North 13.8 mph - N/A   Clear
1:53 AM 50.0 °F - 36.0 °F 59% 30.00 in 10.0 mi North 15.0 mph - N/A   Partly Cloudy
2:53 AM 50.0 °F - 37.9 °F 63% 30.01 in 10.0 mi North 13.8 mph 23.0 mph N/A   Partly Cloudy
3:53 AM 50.0 °F - 37.9 °F 63% 30.03 in 10.0 mi North 11.5 mph - N/A   Overcast
4:53 AM 46.9 °F - 41.0 °F 80% 30.04 in 10.0 mi North 5.8 mph - 0.00 in Rain Light Rain
5:53 AM 46.9 °F - 39.9 °F 77% 30.06 in 10.0 mi North 9.2 mph - 0.00 in   Overcast
6:53 AM 46.0 °F 41.0 °F 39.0 °F 76% 30.09 in 10.0 mi North 10.4 mph - N/A   Overcast
7:53 AM 44.1 °F 39.0 °F 37.9 °F 79% 30.12 in 10.0 mi North 9.2 mph - N/A   Scattered Clouds
8:53 AM 43.0 °F 38.2 °F 37.9 °F 82% 30.16 in 10.0 mi North 8.1 mph - N/A   Clear
9:53 AM 48.0 °F - 36.0 °F 63% 30.17 in 10.0 mi NNE 11.5 mph - N/A   Clear
10:53 AM 51.1 °F - 36.0 °F 56% 30.16 in 10.0 mi North 9.2 mph - N/A   Clear
11:53 AM 55.0 °F - 39.0 °F 55% 30.14 in 10.0 mi North 11.5 mph - N/A   Clear
12:53 PM 57.9 °F - 37.9 °F 47% 30.13 in 10.0 mi North 4.6 mph - N/A   Clear
1:53 PM 61.0 °F - 33.1 °F 35% 30.09 in 10.0 mi North 9.2 mph 16.1 mph N/A   Clear
2:53 PM 62.1 °F - 32.0 °F 32% 30.07 in 10.0 mi WNW 6.9 mph - N/A   Clear
3:53 PM 63.0 °F - 28.0 °F 27% 30.04 in 10.0 mi NW 10.4 mph - N/A   Clear
4:53 PM 63.0 °F - 27.0 °F 26% 30.05 in 10.0 mi WNW 9.2 mph - N/A   Clear
5:53 PM 63.0 °F - 27.0 °F 26% 30.06 in 10.0 mi NNW 8.1 mph - N/A   Clear
6:53 PM 57.9 °F - 28.9 °F 33% 30.06 in 10.0 mi North 3.5 mph - N/A   Clear
7:53 PM 55.0 °F - 28.9 °F 37% 30.08 in 10.0 mi Calm Calm - N/A   Clear
8:53 PM 51.1 °F - 28.9 °F 43% 30.10 in 10.0 mi SSW 4.6 mph - N/A   Clear
9:53 PM 46.0 °F 43.1 °F 30.0 °F 54% 30.11 in 10.0 mi SW 5.8 mph - N/A   Clear
10:53 PM 44.1 °F 41.5 °F 28.9 °F 55% 30.12 in 10.0 mi SW 4.6 mph - N/A   Clear
11:53 PM 44.1 °F 38.6 °F 28.9 °F 55% 30.11 in 10.0 mi SW 10.4 mph - N/A   Clear